星链-2514 (STARLINK-2514 )

导读 | 星芒AI

STARLINK-2514 是 SpaceX Starlink 项目中的一颗低轨通信卫星,属于第二代 Starlink 卫星(Gen2)。它于2023年发射,旨在为全球用户提供高速、低延迟的互联网服务。该卫星采用先进推进系统和激光通信技术,提升网络效率与稳定性。作为 Starlink 卫星群的一部分,STARLINK-2514 支持农村及偏远地区网络覆盖,助力全球互联网普及。

基本信息
目录编号:
48331
目录名称:
STARLINK-2514
国际标识:
2021-036BH
轨道中心:
EARTH
卫星名称:
星链-2514
卫星全名:
星链-2514 (STARLINK-2514 )
卫星状态:
在轨 (已飞行1694 天)
发射日期:
2021-04-29 UTC
国别 :
美国 (US)
星等 :
--
轨道信息
数据来源 国际轨道数据 AOE轨道数据
星历时间 2025-12-17T22:33:33+0800
16小时前
查看轨道信息
2025-12-17T09:00:00+0800
1天前
查看轨道信息
半长轴 6925.34km 6925.35km
偏心率 0.0001223 0.0001241
轨道倾角 53.055° 53.054°
近地点辐角 85.415° 100.633°
升交点赤经 110.102° 112.638°
平近点角 274.698° 73.930°
近地点 546.358km 546.355km
远地点 548.052km 548.075km
周期 95.592分钟 95.592分钟
每日圈数 15.064031 15.063996
详细信息
固有亮度:
5
最大亮度:
2.5
卫星平台:
Starlink V1.0
覆盖范围:
全球
运营商:
太空探索技术公司
运营商所在国:
美国
制造商(研发单位):
太空探索技术公司
制造商所在国:
美国
使用方式:
暂无
卫星简介
星链(Starlink)计划是由太空探索技术公司(SpaceX)提出的一个巨型低轨卫星互联网星座项目,计划在2019年至2024年间在太空搭建由约1.2万颗卫星组成的“星链”网络,其中1584颗将部署在地球上空550千米处的近地轨道,并从2020年开始工作。该卫星仍在工作。
2D轨道图
3D轨道图
轨道高度分析图
轨道倾角分析图
轨道综合分析图
查看轨道综合分析图